User: anonymous   Login
Location: Newark
(35.4036°N, 80.4356°W)
Time: 18:45:12
(UTC+00:00)
Language:

POLYITAN 1 - Orbit

View from above orbital plane
View from above orbital plane
View from above satellite
View from above satellite

Ground track
Ground track

The orbit data is extracted from the following two-line orbital elements,

1 40042U 14033AJ  19286.78501428  .00000326  00000-0  40880-4 0  9997
2 40042  97.9120 206.6413 0015462  29.0862 331.1213 14.88714273288655
Epoch (UTC): 13 October 2019 18:50:25
Eccentricity: 0.0015462
inclination: 97.9120°
perigee height: 591 km
apogee height: 613 km
right ascension of ascending node: 206.6413°
argument of perigee: 29.0862°
revolutions per day: 14.88714273
mean anomaly at epoch: 331.1213°
orbit number at epoch: 28865

The dashed part of the orbit path shows where the satellite is in the earth's shadow,  

DLR